Regional Weather Roundup
Issued by NWS Goodland, KS

Home | Current Version | Previous Version | Text Only | Print | Product List | Glossary Off
Versions: 1 2 3 4 5 6 7 8 9 10 11 12 13 14 15 16 17 18 19 20 21 22 23 24 25 26 27 28 29 30 31 32 33 34 35 36 37 38 39 40 41 42 43 44 45 46 47 48 49 50

000
ASUS43 KGLD 161359
RWRGLD

GOODLAND FORECAST AREA HOURLY WEATHER ROUNDUP
NATIONAL WEATHER SERVICE GOODLAND KS
700 AM MST SAT DEC 16 2017

...OFFICIAL OBSERVATIONS...

CITY           SKY/WX    TMP DP  RH WIND       PRES   REMARKS
GOODLAND KS    CLOUDY    28  11  48 NW7       29.73S
HILL CITY KS   CLEAR     24  13  62 W3        29.75S
IMPERIAL NEB   CLOUDY    27  15  61 NW6       29.78R
MCCOOK NEB     CLOUDY    23  13  65 SW3       29.76R
AKRON CO       CLOUDY    46   6  19 NE8       29.77R
BURLINGTON CO  CLOUDY    24  10  55 NW7       29.74S
LIMON CO       CLOUDY    30  14  51 NW7       29.76R
$$

...UNOFFICIAL OBSERVATIONS...

CITY           SKY/WX    TMP DP  RH WIND       PRES   REMARKS
LENORA KS        N/A     30  32 100 NW7         N/A
NORTON KS      CLEAR     25  10  54 W8        29.74
SHARON SPRINGS   N/A     27  13  56 NW8         N/A
TRENTON NEB      N/A     33  32  96 NW8         N/A
KIT CARSON CO    N/A     22   9  57 MISG        N/A
YUMA CO        FAIR      28  12  50 NW7       29.77R
$$



USA.gov is the U.S. government's official web portal to all federal, state and local government web resources and services.